Zurück zum Katalog

STARLINK-4110

AktivKommunikationVLEO
NORAD 53166·PAYLOAD·🇺🇸 United States

Gestartet Jul 17, 2022 von Cape Canaveral Space Force Station

Loading…

Nächste Überflüge (nächste 24 Stunden)

TLE

AktuellSource: CelesTrak SupGP

Epoche: Sep 15, 2026, 02:16 UTC

1 53166C 22083AL  26258.09493056  .00156760  00000+0  47630-2 0  2589
2 53166  53.1590 358.9789 0001011  83.5996 135.7146 15.33429695    13

Verfolge STARLINK-4110 in Echtzeit mit AllMySat

Download on the App Store